Flag for U.S.A. Weather past 2 weeks in Minot, North Dakota, U.S.A.

Now
50 °F

Fog.


Feels Like: 45 °F
Forecast: 49 / 56 °F
Wind: 14 mph from East

Location: Minot International Airport

Current Time: Sep 30, 2014 at 5:28:26 PM

Latest Report: Sep 30, 2014 at 4:54 PM


Visibility: 2 mi

Pressure: 29.59 "Hg

Humidity: 93%

Dew point: 48 °F

Location of MinotLocation

Historic Weather in Minot — Graph

°F

Minot temperature yesterday

Maximum temperature yesterday: 52 °F (at 5:54 PM)
Minimum temperature yesterday: 42 °F (at 6:54 AM)
Average temperature yesterday: 47 °F

Past Weeks' High & Low Weather Summary

 TemperatureHumidityPressure
High93 °F (Sep 25, 2:54 PM)97% (Sep 30, 8:54 AM)30.35 "Hg (Sep 30, 8:54 AM)
Low42 °F (Sep 29, 6:54 AM)20% (Sep 25, 2:54 PM)29.49 "Hg (Sep 19, 4:54 AM)
Average62 °F64%29.95 "Hg
* Reported Sep 15 3:54 PM — Sep 30 3:54 PM, Minot, Weather by CustomWeather, © 2014

Note: Actual official high and low records may vary slightly from our data, if they occured in-between our weather recording intervals... More about our weather records

Advertising

Minot weather history for previous 24 hours

 ConditionsComfort  
Time TempWeatherWind HumidityBarometerVisibility
3:54 PM
Sep 30
50 °FLight rain. Low clouds.12 mph93%29.60 "Hg10 mi
2:54 PM50 °FLight rain. Low clouds.12 mph89%29.62 "Hg8 mi
1:54 PM49 °FLight rain. Fog.17 mph93%29.67 "Hg6 mi
1:01 PM50 °FLow clouds.17 mph86%29.66 "Hg10 mi
12:54 PM50 °FLow clouds.16 mph86%29.68 "Hg10 mi
11:54 AM49 °FFog.18 mph93%29.70 "Hg2 mi
10:54 AM48 °FFog.16 mph96%29.73 "Hg1 mi
9:54 AM49 °FFog.13 mph97%29.76 "Hg1 mi
8:54 AM49 °FFog.14 mph97%29.78 "Hg1 mi
7:54 AM49 °FFog.13 mph93%29.78 "Hg4 mi
6:54 AM50 °FLow clouds.10 mph89%29.80 "Hg7 mi
5:54 AM50 °FLow clouds.14 mph89%29.82 "Hg10 mi
4:54 AM51 °FOvercast.10 mph86%29.85 "Hg10 mi
3:54 AM51 °FOvercast.12 mph83%29.87 "Hg10 mi
2:54 AM51 °FOvercast.13 mph83%29.90 "Hg10 mi
1:54 AM51 °FOvercast.17 mph83%29.91 "Hg10 mi
12:54 AM52 °FOvercast.14 mph80%29.95 "Hg10 mi
11:54 PM
Sep 29
52 °FOvercast.13 mph80%29.96 "Hg10 mi
10:54 PM52 °FMostly cloudy.15 mph80%29.98 "Hg10 mi
9:54 PM51 °FMostly cloudy.12 mph80%30.01 "Hg10 mi
8:54 PM51 °FMostly cloudy.10 mph80%30.03 "Hg10 mi
8:01 PM51 °FMore clouds than sun.10 mph77%30.02 "Hg10 mi
7:54 PM51 °FMostly cloudy.14 mph77%30.04 "Hg10 mi
6:54 PM52 °FOvercast.8 mph77%30.06 "Hg10 mi
5:54 PM52 °FOvercast.13 mph75%30.07 "Hg10 mi
Weather by CustomWeather, © 2014

See weather overviewHow to use our weather pages